TimeCDT,TemperatureF,Dew PointF,Humidity,Sea Level PressureIn,VisibilityMPH,Wind Direction,Wind SpeedMPH,Gust SpeedMPH,PrecipitationIn,Events,Conditions,WindDirDegrees,DateUTC
12:15 AM,66.2,57.2,73,29.97,9.0,Calm,Calm,-,N/A,,Overcast,0,2013-09-30 05:15:00
12:35 AM,66.2,57.2,73,29.96,10.0,Calm,Calm,-,N/A,,Overcast,0,2013-09-30 05:35:00
12:55 AM,66.2,57.2,73,29.96,10.0,Calm,Calm,-,N/A,,Overcast,0,2013-09-30 05:55:00
1:35 AM,66.2,57.2,73,29.96,10.0,Calm,Calm,-,N/A,,Mostly Cloudy,0,2013-09-30 06:35:00
1:55 AM,66.2,57.2,73,29.95,10.0,Calm,Calm,-,N/A,,Overcast,0,2013-09-30 06:55:00
2:15 AM,66.2,57.2,73,29.95,1.8,East,3.5,-,N/A,,Overcast,80,2013-09-30 07:15:00
3:15 AM,66.2,57.2,73,29.94,5.0,SE,3.5,-,N/A,,Overcast,140,2013-09-30 08:15:00
3:35 AM,66.2,55.4,68,29.95,1.8,Calm,Calm,-,N/A,,Overcast,0,2013-09-30 08:35:00
3:55 AM,66.2,55.4,68,29.94,2.0,East,3.5,-,N/A,,Overcast,90,2013-09-30 08:55:00
4:15 AM,66.2,55.4,68,29.94,5.0,Calm,Calm,-,N/A,,Overcast,0,2013-09-30 09:15:00
4:35 AM,64.4,55.4,73,29.94,10.0,Calm,Calm,-,N/A,,Overcast,0,2013-09-30 09:35:00
5:15 AM,64.4,55.4,73,29.94,4.0,Calm,Calm,-,N/A,,Overcast,0,2013-09-30 10:15:00
5:35 AM,64.4,55.4,73,29.95,4.0,Calm,Calm,-,N/A,,Overcast,0,2013-09-30 10:35:00
5:55 AM,64.4,55.4,73,29.95,5.0,Calm,Calm,-,N/A,,Overcast,0,2013-09-30 10:55:00
6:15 AM,64.4,55.4,73,29.95,5.0,Calm,Calm,-,N/A,,Overcast,0,2013-09-30 11:15:00
6:35 AM,64.4,55.4,73,29.95,2.5,ESE,3.5,-,N/A,,Overcast,120,2013-09-30 11:35:00
6:55 AM,64.4,55.4,73,29.96,1.5,Calm,Calm,-,N/A,,Overcast,0,2013-09-30 11:55:00
7:15 AM,64.4,55.4,73,29.96,1.8,Calm,Calm,-,N/A,,Overcast,0,2013-09-30 12:15:00
7:35 AM,64.4,55.4,73,29.96,2.0,East,3.5,-,N/A,,Overcast,100,2013-09-30 12:35:00
7:55 AM,64.4,55.4,73,29.96,1.0,East,3.5,-,N/A,,Overcast,90,2013-09-30 12:55:00
8:15 AM,64.4,55.4,73,29.97,1.0,East,3.5,-,N/A,,Overcast,90,2013-09-30 13:15:00
8:35 AM,64.4,57.2,77,29.97,1.0,East,3.5,-,N/A,,Overcast,80,2013-09-30 13:35:00
8:55 AM,64.4,57.2,77,29.97,1.8,ESE,3.5,-,N/A,,Overcast,120,2013-09-30 13:55:00
9:35 AM,66.2,57.2,73,29.96,0.5,ESE,5.8,-,N/A,,Overcast,110,2013-09-30 14:35:00
9:55 AM,66.2,57.2,73,29.97,0.2,East,5.8,-,N/A,,Overcast,90,2013-09-30 14:55:00
10:15 AM,68.0,57.2,68,29.96,0.5,East,8.1,-,N/A,,Overcast,80,2013-09-30 15:15:00
10:35 AM,68.0,57.2,68,29.97,0.5,SE,3.5,-,N/A,,Overcast,130,2013-09-30 15:35:00
10:55 AM,68.0,57.2,68,29.98,0.5,ESE,3.5,-,N/A,,Overcast,120,2013-09-30 15:55:00
11:15 AM,68.0,57.2,68,29.97,0.5,ESE,5.8,-,N/A,,Overcast,110,2013-09-30 16:15:00
11:35 AM,68.0,57.2,68,29.97,0.8,ESE,4.6,-,N/A,,Overcast,120,2013-09-30 16:35:00
11:55 AM,69.8,57.2,64,29.97,0.2,ESE,5.8,-,N/A,,Overcast,120,2013-09-30 16:55:00
12:15 PM,69.8,57.2,64,29.96,0.2,SE,3.5,-,N/A,,Overcast,130,2013-09-30 17:15:00
12:35 PM,71.6,57.2,60,29.96,10.0,South,3.5,-,N/A,,Mostly Cloudy,190,2013-09-30 17:35:00
12:55 PM,73.4,59.0,61,29.95,10.0,East,4.6,-,N/A,,Mostly Cloudy,100,2013-09-30 17:55:00
1:15 PM,75.2,59.0,57,29.94,6.0,East,5.8,-,N/A,,Mostly Cloudy,100,2013-09-30 18:15:00
1:35 PM,75.2,59.0,57,29.93,10.0,SSE,3.5,-,N/A,,Mostly Cloudy,160,2013-09-30 18:35:00
1:55 PM,75.2,59.0,57,29.92,10.0,SE,8.1,-,N/A,,Scattered Clouds,130,2013-09-30 18:55:00
2:15 PM,77.0,60.8,57,29.91,10.0,East,5.8,-,N/A,,Scattered Clouds,100,2013-09-30 19:15:00
2:35 PM,77.0,59.0,54,29.90,10.0,ESE,5.8,-,N/A,,Scattered Clouds,110,2013-09-30 19:35:00
2:55 PM,78.8,59.0,51,29.90,10.0,SE,6.9,-,N/A,,Scattered Clouds,130,2013-09-30 19:55:00
3:15 PM,78.8,59.0,51,29.89,10.0,ESE,9.2,-,N/A,,Partly Cloudy,110,2013-09-30 20:15:00
3:35 PM,78.8,59.0,51,29.89,10.0,ESE,5.8,-,N/A,,Partly Cloudy,120,2013-09-30 20:35:00
3:55 PM,77.0,57.2,50,29.89,10.0,ESE,6.9,-,N/A,,Partly Cloudy,110,2013-09-30 20:55:00
4:35 PM,78.8,59.0,51,29.89,10.0,ESE,8.1,-,N/A,,Clear,110,2013-09-30 21:35:00
4:55 PM,77.0,59.0,54,29.89,10.0,East,6.9,-,N/A,,Mostly Cloudy,90,2013-09-30 21:55:00
5:15 PM,77.0,59.0,54,29.89,10.0,East,6.9,-,N/A,,Mostly Cloudy,100,2013-09-30 22:15:00
5:35 PM,77.0,59.0,54,29.89,10.0,ESE,5.8,-,N/A,,Mostly Cloudy,110,2013-09-30 22:35:00
5:55 PM,75.2,59.0,57,29.89,10.0,ESE,6.9,-,N/A,,Partly Cloudy,110,2013-09-30 22:55:00
6:15 PM,75.2,59.0,57,29.89,10.0,ESE,6.9,-,N/A,,Clear,110,2013-09-30 23:15:00
6:35 PM,73.4,59.0,61,29.89,10.0,ESE,5.8,-,N/A,,Clear,120,2013-09-30 23:35:00
6:55 PM,73.4,57.2,57,29.89,10.0,ESE,4.6,-,N/A,,Clear,120,2013-09-30 23:55:00
7:15 PM,71.6,57.2,60,29.89,10.0,ESE,4.6,-,N/A,,Clear,120,2013-10-01 00:15:00
7:35 PM,71.6,57.2,60,29.90,10.0,ESE,4.6,-,N/A,,Clear,120,2013-10-01 00:35:00
7:55 PM,71.6,57.2,60,29.90,10.0,ESE,4.6,-,N/A,,Clear,110,2013-10-01 00:55:00
8:15 PM,69.8,57.2,64,29.91,10.0,Calm,Calm,-,N/A,,Clear,0,2013-10-01 01:15:00
8:35 PM,69.8,57.2,64,29.92,10.0,ENE,3.5,-,N/A,,Clear,70,2013-10-01 01:35:00
8:55 PM,69.8,57.2,64,29.92,10.0,Calm,Calm,-,N/A,,Clear,0,2013-10-01 01:55:00
9:35 PM,66.2,55.4,68,29.93,10.0,Calm,Calm,-,N/A,,Clear,0,2013-10-01 02:35:00
9:55 PM,66.2,57.2,73,29.93,10.0,Calm,Calm,-,N/A,,Clear,0,2013-10-01 02:55:00
10:15 PM,66.2,57.2,73,29.93,10.0,Calm,Calm,-,N/A,,Clear,0,2013-10-01 03:15:00
10:35 PM,66.2,55.4,68,29.93,10.0,Calm,Calm,-,N/A,,Clear,0,2013-10-01 03:35:00
10:55 PM,66.2,57.2,73,29.93,10.0,Calm,Calm,-,N/A,,Clear,0,2013-10-01 03:55:00
11:35 PM,66.2,57.2,73,29.92,10.0,Calm,Calm,-,N/A,,Scattered Clouds,0,2013-10-01 04:35:00
11:55 PM,66.2,57.2,73,29.93,10.0,Calm,Calm,-,N/A,,Mostly Cloudy,0,2013-10-01 04:55:00